Flag for U.S.A. Weather past 2 weeks in Mountain View, California, U.S.A.

Now
54 °F

Clear.


Feels Like: 53 °F
Forecast: 49 / 69 °F
Wind: 5 mph from North

Location: Moffett Field


UV Index: 5 (Moderate)

Visibility: 10 mi


Pressure: 29.98 "Hg

Humidity: 74%

Dew point: 46 °F

Location of Mountain ViewLocation

Historic Weather in Mountain View

°F

Mountain View temperature yesterday

Maximum temperature yesterday: 68 °F (at 11:56 AM)
Minimum temperature yesterday: 53 °F (at 5:56 AM)
Average temperature yesterday: 60 °F

Past Weeks' High & Low Weather Summary

 TemperatureHumidityPressure
High81 °F (Apr 8, 1:56 PM)88% (Apr 4, 7:59 AM)30.25 "Hg (Apr 4, 7:59 AM)
Low48 °F (Apr 6, 5:56 AM)29% (Apr 10, 3:56 PM)29.82 "Hg (Apr 17, 5:56 AM)
Average61 °F68%30.02 "Hg
* Reported Apr 3 10:56 PM — Apr 18 10:56 PM, Mountain View, Weather by CustomWeather, © 2014

Note: Actual official high and low records may vary slightly from our data, if they occured in-between our weather recording intervals... More about our weather records

Advertising

Historic Weather Conditions — Data for Previous 24 hours

 ConditionsComfort  
Time TempWeatherWind HumidityBarometerVisibility
10:56 PM
Apr 18
56 °FClear.3 mph67%29.96 "Hg10 mi
9:56 PM57 °FClear.3 mph60%29.96 "Hg10 mi
8:56 PM58 °FClear.6 mph47%29.95 "Hg9 mi
7:56 PM61 °FSunny.9 mph39%29.94 "Hg10 mi
6:56 PM63 °FSunny.12 mph60%29.92 "Hg10 mi
5:56 PM64 °FSunny.13 mph63%29.91 "Hg10 mi
4:56 PM66 °FSunny.16 mph61%29.90 "Hg10 mi
3:56 PM65 °FSunny.17 mph66%29.90 "Hg10 mi
2:56 PM65 °FSunny.16 mph61%29.91 "Hg10 mi
1:56 PM65 °FSunny.17 mph63%29.92 "Hg10 mi
12:56 PM67 °FSunny.14 mph61%29.92 "Hg10 mi
11:56 AM68 °FSunny.8 mph51%29.93 "Hg10 mi
10:56 AM65 °FSunny.5 mph56%29.94 "Hg10 mi
9:56 AM62 °FSunny.3 mph62%29.95 "Hg10 mi
8:56 AM58 °FSunny.3 mph72%29.95 "Hg10 mi
7:56 AM56 °FSunny.5 mph75%29.95 "Hg10 mi
6:56 AM53 °FClear.No wind74%29.93 "Hg10 mi
5:56 AM53 °FClear.3 mph77%29.90 "Hg10 mi
4:56 AM55 °FClear.3 mph77%29.89 "Hg10 mi
3:56 AM54 °FClear.No wind77%29.89 "Hg10 mi
2:56 AM56 °FClear.3 mph72%29.90 "Hg10 mi
1:56 AM55 °FClear.6 mph72%29.90 "Hg10 mi
12:56 AM57 °FClear.3 mph64%29.91 "Hg10 mi
Weather by CustomWeather, © 2014

See weather overview